[[{"header":{"parameterUnit":"m.s-1","parameterCategory":2,"la1":30.2991,"la2":30.254,"lo1":-89.0895,"lo2":-89.0444,"dy":0.0017,"dx":0.0017,"nx":28,"ny":28,"refTime":"2025-02-24T09:00:00:Z","depth":"0","parameterNumber":2,"parameterNumberName":"U-component_of_CURRENTS"},"data":[0,0,0,0,0,0,0,0,0,0,0,0,0,0,0,0,0,0,0,0,0,0,0,0,0,0,0,0,0,0,0,0,0,0,0,0,0,0,0,0,0,0,0,0,0,0,0,0,0,0,0,0,0,0,0,0,0,0,0.294,0.2941,0,0.2918,0.2917,0.2917,0.2875,0.2874,0.2874,0.2873,0.2822,0.2821,0.282,0,0,0,0,0,0,0,0,0,0,0,0,0,0.2955,0.2955,0.294,0.2941,0.2941,0.2918,0.2917,0.2916,0.2875,0.2874,0.2874,0.2873,0.2822,0.2821,0.282,0,0,0,0,0,0,0,0,0,0,0,0,0,0.2939,0.2955,0.294,0.292,0.2918,0.2918,0.2917,0.2916,0.2875,0.2874,0.2874,0.2873,0.2822,0.2821,0.282,0.2826,0,0,0.2815,0.2815,0,0,0,0,0,0,0,0,0.294,0.2938,0.2923,0.2921,0.2919,0.2901,0.2903,0.2886,0.2875,0.2888,0.2873,0.2873,0.2848,0.2845,0.2838,0.2823,0.2821,0.2815,0.2814,0.2814,0.2813,0,0,0,0,0,0,0,0.2941,0.2939,0.2928,0.2923,0.2921,0.2914,0.291,0.29,0.2869,0.2887,0.2884,0.2887,0.2847,0.2839,0.2836,0.282,0.2815,0.2814,0.2813,0.2813,0.2835,0.2837,0,0,0,0,0,0,0.2951,0.294,0.2929,0.2928,0.2932,0.2915,0.291,0.2905,0.287,0.2865,0.2888,0.2886,0.2842,0.2838,0.2834,0.2856,0.2814,0.2812,0.2812,0.2834,0.2836,0.2837,0,0,0,0,0,0,0.2951,0.295,0.293,0.2936,0.2934,0.2915,0.2909,0.2905,0.29,0.2872,0.2866,0.2889,0.2841,0.2836,0.2834,0.2853,0.2812,0.2811,0.2832,0.2835,0.2837,0.289,0,0,0,0,0,0,0.2952,0.295,0.2951,0.2937,0.2934,0.2933,0.291,0.2905,0.2905,0.2901,0.2871,0.2865,0.284,0.2837,0.2833,0.2851,0.2809,0.2831,0.2833,0.2836,0.2887,0.2894,0.29,0,0,0,0,0,0.2952,0.2951,0.2951,0.295,0.2935,0.2934,0.2931,0.2914,0.2906,0.2906,0.2891,0.2866,0.2851,0.2837,0.2832,0.285,0.2829,0.2833,0.2836,0.2883,0.2892,0.29,0,0,0,0,0,0,0.2953,0.2947,0.2946,0.2942,0.2943,0.2928,0.2927,0.2922,0.291,0.2907,0.2879,0.2873,0.2882,0.2862,0.2847,0.2867,0.2838,0.2841,0.2877,0.2885,0.2891,0.29,0.2808,0,0,0,0,0,0.2958,0.2956,0.2954,0.2952,0.2954,0.2946,0.2944,0.2937,0.2927,0.292,0.2902,0.2891,0.2893,0.2885,0.2879,0.2884,0.2887,0.2896,0.2903,0.2909,0.2915,0.2952,0.2963,0.2848,0.2848,0.2848,0,0,0.2956,0.2956,0.2953,0.2954,0.295,0.2959,0.2941,0.2943,0.295,0.2918,0.2918,0.2914,0.2902,0.2911,0.2913,0.2894,0.2943,0.2913,0.2918,0.2921,0.2957,0.2968,0.2978,0.285,0.285,0.2849,0,0,0.2957,0.2956,0.2956,0.2963,0.297,0.2969,0.2975,0.2969,0.2965,0.2973,0.296,0.2971,0.2957,0.2959,0.2957,0.3001,0.2983,0.2998,0.3031,0.3067,0.3076,0.3085,0.3102,0.3111,0.2995,0.2995,0.2995,0,0.2959,0.2957,0.2958,0.2968,0.2974,0.2979,0.2987,0.2992,0.2986,0.2997,0.298,0.2999,0.2984,0.3014,0.3025,0.3016,0.3026,0.2997,0.3076,0.3084,0.3092,0.3107,0.3117,0.2998,0.2998,0.2998,0.2997,0,0.2961,0.2966,0.2969,0.2984,0.2994,0.3001,0.3015,0.3026,0.3029,0.304,0.307,0.3061,0.3075,0.3076,0.3058,0.311,0.3096,0.3084,0.3053,0.3107,0.3119,0.3129,0.3002,0.3001,0.3001,0.3,0,0,0.2944,0.2965,0.2967,0.2973,0.3002,0.3004,0.3036,0.3063,0.3092,0.31,0.3136,0.3147,0.3155,0.3156,0.3147,0.317,0.3228,0.3149,0.3149,0.3163,0.33,0.3245,0.325,0.3231,0.3233,0.3235,0.3285,0,0.2944,0.2956,0.2973,0.299,0.2995,0.3023,0.3053,0.3085,0.3116,0.3156,0.3175,0.3205,0.3183,0.3194,0.3221,0.3232,0.3256,0.3215,0.3248,0.3249,0.3192,0.326,0.3124,0.3154,0.3294,0.3296,0.3297,0,0.2935,0.2945,0.2956,0.2987,0.2994,0.3012,0.3064,0.3095,0.317,0.3201,0.3252,0.3268,0.3314,0.3282,0.334,0.3316,0.3314,0.3316,0.3317,0.3254,0.3213,0.3124,0.3165,0.3081,0.3311,0.331,0.3309,0,0.2901,0.2929,0.2933,0.2943,0.2986,0.3001,0.3032,0.3105,0.3149,0.3235,0.3279,0.334,0.3371,0.3395,0.34,0.3377,0.3457,0.3425,0.3375,0.337,0.3254,0.3236,0.3214,0.3467,0.3467,0.3467,0.3467,0,0.2883,0.2885,0.2915,0.2914,0.2936,0.2976,0.3024,0.3077,0.317,0.3225,0.3296,0.3348,0.3402,0.3445,0.3438,0.3444,0.3494,0.3397,0.339,0.3268,0.3251,0.3171,0.3148,0.3469,0.3468,0.3468,0.3468,0,0.2838,0.2858,0.2864,0.2902,0.2915,0.293,0.3011,0.3051,0.3151,0.3225,0.3253,0.3376,0.3436,0.3474,0.3522,0.3489,0.3393,0.348,0.3325,0.3298,0.315,0.3135,0.2998,0.2894,0.3432,0.3431,0.3431,0,0.2813,0.281,0.2843,0.2845,0.2858,0.2895,0.2923,0.3028,0.3077,0.3226,0.3251,0.3358,0.3411,0.3486,0.3458,0.3455,0.3355,0.3315,0.3243,0.3139,0.3118,0.2992,0.2905,0.311,0.3107,0.3104,0.3102,0,0.2768,0.2781,0.2787,0.2795,0.2809,0.2834,0.288,0.2921,0.3037,0.3105,0.32,0.3263,0.3354,0.331,0.3325,0.3302,0.3144,0.3257,0.3194,0.2908,0.2726,0.2621,0.3075,0.3078,0.308,0.3082,0.3083,0.3084,0.2735,0.2726,0.2733,0.2731,0.2745,0.2745,0.2732,0.2792,0.2848,0.2909,0.3058,0.31,0.3141,0.3152,0.3113,0.2973,0.2973,0.2865,0.2872,0.2764,0.2611,0.3008,0.2975,0.2976,0.2978,0.2979,0.298,0,0.2678,0.2667,0.2665,0.2642,0.2612,0.2653,0.2673,0.264,0.2636,0.2749,0.2807,0.2834,0.2802,0.2819,0.2737,0.261,0.2463,0.2532,0.233,0.2274,0.2671,0.2605,0.2434,0.2434,0.2434,0.2435,0.2435,0.2435,0.2646,0.2608,0.2595,0.2508,0.2488,0.2405,0.2389,0.2364,0.2409,0.2411,0.2429,0.2496,0.2599,0.2556,0.242,0.2352,0.2159,0.2045,0.2046,0.2351,0.2381,0.2411,0.2342,0.212,0.212,0.1512,0.1508,0.1505]},{"header":{"parameterUnit":"m.s-1","parameterCategory":2,"la1":30.2991,"la2":30.254,"lo1":-89.0895,"lo2":-89.0444,"dy":0.0017,"dx":0.0017,"nx":28,"ny":28,"refTime":"2025-02-24T09:00:00:Z","depth":"0","parameterNumber":3,"parameterNumberName":"V-component_of_CURRENTS"},"data":[0,0,0,0,0,0,0,0,0,0,0,0,0,0,0,0,0,0,0,0,0,0,0,0,0,0,0,0,0,0,0,0,0,0,0,0,0,0,0,0,0,0,0,0,0,0,0,0,0,0,0,0,0,0,0,0,0,0,0.015,0.015,0,0.0118,0.0117,0.0117,0.0095,0.0095,0.0095,0.0095,0.0056,0.0055,0.0055,0,0,0,0,0,0,0,0,0,0,0,0,0,0.014,0.0141,0.015,0.015,0.0149,0.0118,0.0117,0.0117,0.0095,0.0095,0.0095,0.0095,0.0057,0.0056,0.0054,0,0,0,0,0,0,0,0,0,0,0,0,0,0.0129,0.0141,0.015,0.0136,0.0134,0.0118,0.0117,0.0116,0.0095,0.0095,0.0095,0.0095,0.0057,0.0056,0.0054,0.0046,0,0,0.005,0.0049,0,0,0,0,0,0,0,0,0.013,0.0129,0.0138,0.0137,0.0135,0.0111,0.0099,0.0093,0.0096,0.0109,0.0095,0.0095,0.0075,0.0072,0.0065,0.0044,0.0043,0.005,0.0049,0.0048,0.0048,0,0,0,0,0,0,0,0.0131,0.013,0.0136,0.0138,0.0136,0.0113,0.0112,0.0098,0.0092,0.0108,0.0107,0.0105,0.0074,0.0066,0.0064,0.0042,0.005,0.0048,0.0047,0.0047,0.0021,0.0021,0,0,0,0,0,0,0.014,0.0131,0.0137,0.0135,0.0133,0.0113,0.0112,0.0118,0.0092,0.0088,0.0105,0.0104,0.0069,0.0065,0.0062,0.007,0.0048,0.0047,0.0046,0.002,0.0021,0.0021,0,0,0,0,0,0,0.014,0.0141,0.0138,0.0133,0.0131,0.0114,0.0121,0.0118,0.0114,0.009,0.0086,0.0105,0.0069,0.0064,0.0058,0.0068,0.0046,0.0045,0.002,0.002,0.0021,0.0073,0,0,0,0,0,0,0.014,0.0141,0.0148,0.0134,0.0132,0.0138,0.0121,0.0117,0.0113,0.0111,0.0089,0.0085,0.0068,0.006,0.0056,0.0065,0.0043,0.002,0.002,0.0021,0.0071,0.0075,0.0079,0,0,0,0,0,0.014,0.0154,0.0149,0.015,0.0143,0.0139,0.0136,0.0122,0.0113,0.0117,0.0101,0.0086,0.006,0.0059,0.0055,0.0063,0.002,0.002,0.0021,0.007,0.0075,0.0079,0,0,0,0,0,0,0.0152,0.0153,0.0147,0.016,0.0154,0.0136,0.0137,0.0126,0.0116,0.0113,0.009,0.0085,0.0081,0.0064,0.0064,0.0056,0.0036,0.0036,0.0075,0.008,0.0083,0.0102,0.0042,0,0,0,0,0,0.0159,0.017,0.0163,0.0172,0.0171,0.0154,0.015,0.0141,0.013,0.0125,0.0109,0.0091,0.0078,0.0074,0.0057,0.0056,0.0033,0.0057,0.0061,0.0064,0.0075,0.0045,0.0047,0.0022,0.0022,0.0022,0,0,0.0164,0.0167,0.0172,0.0175,0.0167,0.0178,0.0151,0.015,0.0159,0.0122,0.0127,0.0103,0.0079,0.0077,0.0073,0.0066,0.0058,0.0065,0.0068,0.0077,0.0046,0.0048,0.005,0.0023,0.0023,0.0023,0,0,0.0187,0.0186,0.0205,0.0204,0.02,0.0194,0.0198,0.0184,0.0177,0.0175,0.0151,0.0136,0.0117,0.0104,0.0094,0.0109,0.0076,0.0101,0.014,0.011,0.0112,0.0114,0.0085,0.0083,0.0106,0.0106,0.0106,0,0.0194,0.0221,0.0208,0.0226,0.0234,0.0207,0.0231,0.0219,0.0205,0.0207,0.0185,0.0156,0.0131,0.0133,0.0136,0.0119,0.0096,0.0126,0.0116,0.0117,0.0118,0.0088,0.0085,0.0109,0.0108,0.0108,0.0108,0,0.0233,0.0253,0.0263,0.0284,0.0288,0.0301,0.029,0.0286,0.0272,0.0265,0.0255,0.0214,0.0202,0.0185,0.0166,0.0162,0.0142,0.0122,0.0107,0.0123,0.009,0.0087,0.0112,0.0112,0.0111,0.011,0,0,0.026,0.0288,0.0292,0.0316,0.0322,0.0334,0.0342,0.0353,0.0372,0.0334,0.035,0.0309,0.0285,0.0272,0.0237,0.0209,0.0186,0.0174,0.0171,0.0151,0.0122,0.0115,0.011,0.0163,0.0163,0.0163,0.0096,0,0.0298,0.0351,0.0353,0.0403,0.0432,0.0413,0.0431,0.0431,0.0425,0.043,0.0375,0.0376,0.032,0.0314,0.0276,0.0214,0.018,0.0206,0.0104,0.0101,0.0098,0.0108,0.015,0.0095,0.0092,0.0092,0.0091,0,0.0345,0.0376,0.0433,0.0476,0.0487,0.0508,0.0539,0.0555,0.0547,0.054,0.0519,0.0478,0.0435,0.0378,0.0276,0.0296,0.0217,0.0157,0.0152,0.0129,0.0089,0.0078,0.0089,-0.0017,0.0086,0.0086,0.0087,0,0.0386,0.0436,0.0488,0.0501,0.0538,0.0555,0.0577,0.0589,0.0625,0.0615,0.063,0.0565,0.0542,0.0431,0.0302,0.0291,0.0182,0.0148,0.0064,0.0063,0.0071,0.0071,-0.0025,0.0071,0.0071,0.0071,0.0071,0,0.0436,0.0477,0.051,0.0537,0.0604,0.0609,0.0682,0.0686,0.0717,0.0775,0.0696,0.0716,0.0554,0.0469,0.0334,0.0197,0.0204,0.0078,0.0049,0.009,0.0092,-0.0023,-0.0111,0.0069,0.0069,0.007,0.007,0,0.0477,0.0496,0.0562,0.0608,0.0627,0.0678,0.0759,0.0816,0.0825,0.089,0.0889,0.0835,0.0732,0.0557,0.0387,0.0257,0.0044,0.0057,0.0117,0.0097,-0.0077,-0.0163,-0.0295,-0.0372,-0.0041,-0.0041,-0.0042,0,0.0505,0.0542,0.0617,0.0665,0.0688,0.0765,0.0825,0.0867,0.094,0.0973,0.1012,0.093,0.0904,0.0648,0.0408,0.0174,0.0034,0.0044,0.0026,-0.0074,-0.0192,-0.0237,-0.0297,0.0052,0.0052,0.0052,0.0052,0,0.0561,0.0584,0.0638,0.0737,0.0807,0.0901,0.0988,0.1061,0.1115,0.117,0.1226,0.1204,0.0968,0.0768,0.0438,0.027,-0.0029,0.0043,-0.0075,-0.0137,-0.0177,-0.0269,0.0076,0.0055,0.0055,0.0055,0.0055,0.0055,0.0602,0.0651,0.0722,0.0819,0.0904,0.1018,0.1107,0.1211,0.1331,0.1416,0.1392,0.1395,0.1089,0.0665,0.0424,0.0022,-0.0024,-0.0097,-0.0197,-0.0234,-0.0298,0.0055,0.0009,0.0009,0.0009,0.0008,0.0008,0,0.0657,0.071,0.0801,0.0913,0.1015,0.1051,0.1204,0.1299,0.1446,0.1534,0.1586,0.1449,0.1094,0.0693,0.0153,-0.0141,-0.0262,-0.0323,-0.0375,-0.0432,-0.0118,-0.01,-0.0152,-0.0152,-0.0152,-0.0152,-0.0152,-0.0152,0.0684,0.0773,0.0817,0.0981,0.1063,0.1201,0.1292,0.1431,0.1537,0.1643,0.1656,0.1626,0.1326,0.0434,-0.0175,-0.0347,-0.0588,-0.0639,-0.0792,-0.0566,-0.0552,-0.0538,-0.054,-0.0683,-0.0684,-0.1026,-0.103,-0.1033]}],[{"header":{"parameterUnit":"m.s-1","parameterCategory":2,"la1":30.2991,"la2":30.254,"lo1":-89.0895,"lo2":-89.0444,"dy":0.0017,"dx":0.0017,"nx":28,"ny":28,"refTime":"2025-02-24T09:00:00:Z","depth":"2","parameterNumber":2,"parameterNumberName":"U-component_of_CURRENTS"},"data":[0,0,0,0,0,0,0,0,0,0,0,0,0,0,0,0,0,0,0,0,0,0,0,0,0,0,0,0,0,0,0,0,0,0,0,0,0,0,0,0,0,0,0,0,0,0,0,0,0,0,0,0,0,0,0,0,0,0,0.2811,0.2811,0,0.2794,0.2794,0.2793,0.2761,0.2761,0.2761,0.2761,0.2722,0.2721,0.2721,0,0,0,0,0,0,0,0,0,0,0,0,0,0.282,0.282,0.2811,0.2811,0.2812,0.2794,0.2794,0.2793,0.2761,0.2761,0.2761,0.276,0.2722,0.2722,0.2721,0,0,0,0,0,0,0,0,0,0,0,0,0,0.2808,0.282,0.2811,0.2796,0.2795,0.2794,0.2794,0.2793,0.2762,0.2761,0.2761,0.276,0.2723,0.2722,0.2721,0.2723,0,0,0.2717,0.2717,0,0,0,0,0,0,0,0,0.2809,0.2807,0.2798,0.2797,0.2796,0.2782,0.2783,0.277,0.2762,0.2771,0.2761,0.276,0.2743,0.274,0.2733,0.2721,0.272,0.2717,0.2716,0.2716,0.2716,0,0,0,0,0,0,0,0.281,0.2808,0.2801,0.2798,0.2797,0.2792,0.2789,0.278,0.2757,0.277,0.2768,0.2772,0.2741,0.2735,0.2732,0.2719,0.2717,0.2716,0.2715,0.2715,0.2745,0.2746,0,0,0,0,0,0,0.2819,0.2809,0.2802,0.2801,0.2805,0.2792,0.2789,0.2784,0.2757,0.2754,0.2772,0.2771,0.2737,0.2734,0.2731,0.276,0.2716,0.2715,0.2714,0.2743,0.2745,0.2747,0,0,0,0,0,0,0.2819,0.2818,0.2803,0.2808,0.2806,0.2793,0.2788,0.2784,0.2785,0.276,0.2755,0.2778,0.2736,0.2732,0.2735,0.2757,0.2714,0.2713,0.2742,0.2744,0.2746,0.28,0,0,0,0,0,0,0.2819,0.2818,0.2821,0.2808,0.2806,0.2808,0.2789,0.2785,0.2789,0.2787,0.2763,0.2758,0.2736,0.2737,0.2734,0.2755,0.2713,0.274,0.2743,0.2745,0.2796,0.2804,0.281,0,0,0,0,0,0.2819,0.282,0.2821,0.2821,0.2809,0.2808,0.2807,0.2794,0.279,0.2792,0.2782,0.2759,0.2753,0.2737,0.2734,0.2754,0.2738,0.2742,0.2745,0.2793,0.2802,0.281,0,0,0,0,0,0,0.2822,0.2817,0.2818,0.2816,0.2819,0.2804,0.2807,0.2804,0.2797,0.2797,0.2772,0.2767,0.2782,0.2764,0.2748,0.2773,0.2744,0.2747,0.2782,0.2791,0.2797,0.2806,0.2712,0,0,0,0,0,0.2828,0.2828,0.2826,0.2827,0.283,0.2824,0.2824,0.2819,0.2812,0.2809,0.2795,0.2788,0.2792,0.2787,0.2783,0.2792,0.2794,0.2806,0.2813,0.2819,0.2825,0.2859,0.287,0.2757,0.2757,0.2757,0,0,0.2829,0.2829,0.2827,0.2829,0.2828,0.2836,0.2822,0.2827,0.2836,0.2807,0.2814,0.2812,0.2802,0.2814,0.2819,0.28,0.2852,0.2823,0.2828,0.2831,0.2864,0.2875,0.2884,0.2759,0.2759,0.2759,0,0,0.2832,0.2833,0.2836,0.2842,0.2851,0.2851,0.2858,0.2855,0.2855,0.2867,0.2856,0.2871,0.2862,0.2864,0.2863,0.2908,0.2892,0.2907,0.2941,0.2975,0.2984,0.2993,0.3009,0.3018,0.2906,0.2906,0.2906,0,0.2837,0.2837,0.2838,0.2848,0.2855,0.2862,0.2871,0.2877,0.2877,0.2889,0.2876,0.2901,0.2889,0.2919,0.2932,0.2923,0.2934,0.2908,0.2984,0.2992,0.3,0.3014,0.3024,0.2909,0.2908,0.2908,0.2908,0,0.284,0.2848,0.2852,0.2867,0.2877,0.2887,0.29,0.2915,0.2923,0.2934,0.2969,0.2963,0.298,0.2982,0.2966,0.3018,0.3005,0.2992,0.2961,0.3014,0.3026,0.3035,0.2913,0.2912,0.2911,0.291,0,0,0.2829,0.2849,0.2852,0.2859,0.2888,0.289,0.2924,0.2951,0.2982,0.2995,0.3033,0.3047,0.3059,0.306,0.3053,0.3076,0.3134,0.3057,0.3058,0.307,0.3202,0.3143,0.3146,0.3137,0.3139,0.314,0.3188,0,0.2831,0.2844,0.286,0.2878,0.2884,0.2912,0.2942,0.2975,0.3008,0.3049,0.307,0.3104,0.3085,0.31,0.3126,0.3137,0.3161,0.3122,0.3151,0.3152,0.3091,0.3156,0.2871,0.2886,0.3196,0.3198,0.3199,0,0.2825,0.2834,0.2847,0.2878,0.2885,0.2904,0.2957,0.2989,0.3062,0.3095,0.3148,0.3166,0.3213,0.3184,0.3241,0.3219,0.3218,0.3219,0.322,0.3152,0.311,0.2884,0.289,0.3214,0.3212,0.3211,0.321,0,0.2794,0.2823,0.2828,0.2838,0.288,0.2898,0.2929,0.3002,0.3045,0.3132,0.3175,0.3237,0.327,0.3294,0.33,0.3279,0.3353,0.3322,0.3267,0.3262,0.3019,0.2989,0.3363,0.3363,0.3363,0.3363,0.3362,0,0.2778,0.2782,0.2813,0.2814,0.2838,0.2878,0.2928,0.2981,0.3071,0.3125,0.3196,0.3245,0.3301,0.3342,0.3336,0.3337,0.3388,0.3289,0.328,0.303,0.3002,0.3281,0.3271,0.3364,0.3364,0.3364,0.3363,0,0.2738,0.2758,0.2767,0.2806,0.2821,0.2839,0.2919,0.2958,0.3056,0.313,0.3159,0.3274,0.333,0.3367,0.3413,0.3379,0.3384,0.3365,0.3063,0.3018,0.3258,0.325,0.3314,0.3312,0.3311,0.331,0.3309,0,0.2715,0.2714,0.2749,0.2754,0.277,0.2809,0.2837,0.294,0.2986,0.3129,0.3152,0.3254,0.3297,0.3362,0.3314,0.3304,0.337,0.3035,0.2945,0.3273,0.3258,0.3252,0.3246,0.2637,0.2631,0.2626,0.2622,0,0.2674,0.2689,0.2697,0.2708,0.2726,0.275,0.2796,0.2833,0.2945,0.3008,0.3091,0.3145,0.3208,0.3073,0.3076,0.3032,0.3017,0.2931,0.3354,0.2706,0.2643,0.2626,0.2641,0.2576,0.258,0.2584,0.2586,0.2588,0.2645,0.2637,0.2647,0.2649,0.2666,0.2663,0.265,0.2699,0.2747,0.2782,0.2923,0.2891,0.2899,0.2764,0.266,0.2576,0.28,0.2647,0.2659,0.2678,0.2603,0.2542,0.2442,0.2445,0.2448,0.2451,0.2454,0,0.2589,0.2583,0.2582,0.2563,0.2532,0.2579,0.2593,0.2541,0.2523,0.2577,0.2606,0.2373,0.2273,0.2281,0.2074,0.2072,0.202,0.1981,0.187,0.1919,0.1962,0.1846,0.1486,0.1483,0.148,0.1477,0,0,0.2559,0.2523,0.2509,0.2425,0.2413,0.2327,0.2309,0.2246,0.2236,0.2156,0.2096,0.2215,0.2253,0.185,0.1781,0.1596,0.1751,0.1533,0.2316,0.2239,0.2278,0.2359,0.224,0,0,0,0,0]},{"header":{"parameterUnit":"m.s-1","parameterCategory":2,"la1":30.2991,"la2":30.254,"lo1":-89.0895,"lo2":-89.0444,"dy":0.0017,"dx":0.0017,"nx":28,"ny":28,"refTime":"2025-02-24T09:00:00:Z","depth":"2","parameterNumber":3,"parameterNumberName":"V-component_of_CURRENTS"},"data":[0,0,0,0,0,0,0,0,0,0,0,0,0,0,0,0,0,0,0,0,0,0,0,0,0,0,0,0,0,0,0,0,0,0,0,0,0,0,0,0,0,0,0,0,0,0,0,0,0,0,0,0,0,0,0,0,0,0,0.0243,0.0243,0,0.0212,0.0212,0.0212,0.019,0.019,0.0189,0.0189,0.0153,0.0152,0.0152,0,0,0,0,0,0,0,0,0,0,0,0,0,0.0233,0.0233,0.0243,0.0243,0.0243,0.0212,0.0212,0.0211,0.019,0.019,0.0189,0.0189,0.0154,0.0153,0.0151,0,0,0,0,0,0,0,0,0,0,0,0,0,0.0222,0.0233,0.0243,0.0229,0.0227,0.0213,0.0212,0.0211,0.019,0.019,0.0189,0.0189,0.0154,0.0153,0.0151,0.0146,0,0,0.0147,0.0147,0,0,0,0,0,0,0,0,0.0223,0.0223,0.0231,0.023,0.0228,0.0206,0.0195,0.0189,0.019,0.0203,0.0189,0.0189,0.0171,0.0168,0.0161,0.0144,0.0142,0.0147,0.0146,0.0146,0.0145,0,0,0,0,0,0,0,0.0224,0.0223,0.023,0.0231,0.0229,0.0207,0.0205,0.0193,0.0187,0.0202,0.02,0.0199,0.017,0.0163,0.016,0.0142,0.0147,0.0146,0.0145,0.0145,0.0123,0.0123,0,0,0,0,0,0,0.0232,0.0225,0.0231,0.0229,0.0226,0.0207,0.0206,0.0212,0.0187,0.0184,0.0199,0.0198,0.0165,0.0162,0.0159,0.0167,0.0146,0.0145,0.0144,0.0123,0.0123,0.0123,0,0,0,0,0,0,0.0233,0.0234,0.0232,0.0226,0.0225,0.0208,0.0215,0.0212,0.0207,0.0185,0.0181,0.0198,0.0165,0.0161,0.0155,0.0165,0.0144,0.0143,0.0122,0.0123,0.0123,0.0174,0,0,0,0,0,0,0.0232,0.0234,0.0241,0.0227,0.0225,0.0233,0.0215,0.0211,0.0207,0.0205,0.0184,0.018,0.0164,0.0157,0.0154,0.0163,0.0142,0.0122,0.0123,0.0123,0.0172,0.0176,0.0179,0,0,0,0,0,0.0232,0.0247,0.0242,0.0242,0.0236,0.0233,0.023,0.0216,0.0207,0.0211,0.0195,0.0181,0.0157,0.0157,0.0153,0.0161,0.0122,0.0122,0.0123,0.017,0.0175,0.0179,0,0,0,0,0,0,0.0244,0.0245,0.024,0.0253,0.0247,0.023,0.0231,0.022,0.021,0.0207,0.0185,0.0181,0.0177,0.0162,0.0162,0.0155,0.0136,0.0136,0.0174,0.0178,0.0181,0.0199,0.0141,0,0,0,0,0,0.0251,0.0262,0.0255,0.0265,0.0263,0.0247,0.0243,0.0234,0.0223,0.0218,0.0203,0.0187,0.0175,0.0172,0.0156,0.0156,0.0134,0.0158,0.0162,0.0165,0.0176,0.0147,0.0149,0.0125,0.0125,0.0125,0,0,0.0256,0.0259,0.0264,0.0268,0.0259,0.0271,0.0244,0.0243,0.0251,0.0216,0.0221,0.0198,0.0177,0.0175,0.0173,0.0166,0.0158,0.0165,0.0169,0.0178,0.0147,0.015,0.0152,0.0125,0.0125,0.0125,0,0,0.0278,0.0277,0.0295,0.0295,0.0291,0.0286,0.0289,0.0276,0.0269,0.0268,0.0244,0.023,0.0213,0.0202,0.0193,0.0208,0.0176,0.02,0.0238,0.021,0.0211,0.0213,0.0183,0.0181,0.0206,0.0206,0.0206,0,0.0284,0.0311,0.0298,0.0316,0.0324,0.0298,0.0321,0.031,0.0297,0.0299,0.0277,0.025,0.0227,0.0231,0.0234,0.0218,0.0195,0.0225,0.0215,0.0216,0.0217,0.0186,0.0183,0.0208,0.0208,0.0208,0.0207,0,0.0323,0.0343,0.0352,0.0373,0.0378,0.039,0.038,0.0376,0.0362,0.0356,0.0346,0.0307,0.0296,0.0281,0.0263,0.026,0.024,0.0221,0.0207,0.0222,0.0188,0.0185,0.0212,0.0211,0.021,0.021,0,0,0.0348,0.0377,0.0381,0.0404,0.0411,0.0422,0.0431,0.0442,0.0461,0.0424,0.0439,0.0402,0.0377,0.0366,0.0332,0.0305,0.0282,0.0271,0.0268,0.0246,0.0218,0.0207,0.0202,0.026,0.026,0.026,0.0191,0,0.0385,0.0437,0.044,0.0489,0.0517,0.05,0.0518,0.0519,0.0513,0.0518,0.0465,0.0466,0.0412,0.0406,0.0369,0.0309,0.0276,0.0302,0.0201,0.0199,0.0192,0.0199,0.0232,0.0174,0.0187,0.0186,0.0186,0,0.0429,0.0461,0.0516,0.056,0.0571,0.0591,0.0622,0.0639,0.0632,0.0625,0.0603,0.0563,0.0522,0.0467,0.0368,0.0387,0.031,0.0251,0.0247,0.0221,0.0183,0.016,0.0166,0.018,0.018,0.0181,0.0181,0,0.0468,0.0518,0.0569,0.0582,0.062,0.0636,0.0659,0.0672,0.0707,0.0696,0.071,0.0647,0.0622,0.0516,0.039,0.038,0.0273,0.0241,0.0156,0.0154,0.0154,0.0153,0.0166,0.0166,0.0166,0.0166,0.0166,0,0.0516,0.0555,0.059,0.0616,0.0681,0.0688,0.0759,0.0763,0.0793,0.0848,0.0773,0.0789,0.0634,0.055,0.042,0.0284,0.0292,0.0168,0.0139,0.0172,0.0173,0.0158,0.0158,0.0164,0.0164,0.0165,0.0165,0,0.0553,0.0573,0.0637,0.0684,0.0702,0.0752,0.0832,0.0888,0.0896,0.0957,0.0955,0.0901,0.0797,0.0629,0.0463,0.0338,0.0198,0.0143,0.0191,0.017,0.0087,0.009,0.0044,0.0043,0.0042,0.0042,0.0041,0,0.058,0.0615,0.0689,0.0736,0.0759,0.0834,0.0893,0.0936,0.1005,0.1034,0.1069,0.0986,0.0953,0.0702,0.047,0.0242,0.0201,0.0112,0.0096,0.01,0.0076,0.0081,0.0085,0.0109,0.0109,0.0109,0.011,0,0.0631,0.0654,0.0707,0.0803,0.0871,0.0964,0.1049,0.1118,0.117,0.1218,0.1263,0.1235,0.1001,0.0788,0.0469,0.0319,0.015,0.0106,0.01,0.014,0.0157,0.0136,0.0138,0.011,0.011,0.011,0.011,0.011,0.067,0.0717,0.0786,0.088,0.0963,0.1073,0.1159,0.1254,0.1364,0.1423,0.1401,0.1348,0.1104,0.0706,0.0445,0.016,0.017,0.0062,0.0064,0.0065,0.009,0.0105,0.0053,0.0052,0.0052,0.0052,0.0052,0,0.072,0.0772,0.086,0.0968,0.1066,0.1103,0.125,0.1331,0.1458,0.1495,0.1524,0.1283,0.105,0.0751,0.0338,0.0102,0.0089,0.0021,0.0054,0.0056,0.0057,0.0082,0.0042,0.0042,0.0041,0.004,0,0,0.0745,0.083,0.0873,0.1029,0.1109,0.1241,0.1328,0.1435,0.1496,0.1536,0.1499,0.1447,0.1109,0.0806,0.0495,0.0257,0.0208,0.0216,0.0252,0.0331,0.0334,0.0113,0.0159,0,0,0,0,0]}],[{"header":{"parameterUnit":"m.s-1","parameterCategory":2,"la1":30.2991,"la2":30.254,"lo1":-89.0895,"lo2":-89.0444,"dy":0.0017,"dx":0.0017,"nx":28,"ny":28,"refTime":"2025-02-24T09:00:00:Z","depth":"4","parameterNumber":2,"parameterNumberName":"U-component_of_CURRENTS"},"data":[0,0,0,0,0,0,0,0,0,0,0,0,0,0,0,0,0,0,0,0,0,0,0,0,0,0,0,0,0,0,0,0,0,0,0,0,0,0,0,0,0,0,0,0,0,0,0,0,0,0,0,0,0,0,0,0,0,0,0.1844,0.1844,0,0.1884,0.1884,0.1885,0.1925,0.1926,0.1926,0.1927,0.1982,0.1982,0.1983,0,0,0,0,0,0,0,0,0,0,0,0,0,0.1794,0.1795,0.1844,0.1844,0.1845,0.1884,0.1884,0.1885,0.1925,0.1926,0.1926,0.1927,0.1981,0.1982,0.1983,0,0,0,0,0,0,0,0,0,0,0,0,0,0.1821,0.1795,0.1844,0.1872,0.1875,0.1884,0.1884,0.1885,0.1924,0.1926,0.1927,0.1928,0.1981,0.1982,0.1983,0.1967,0,0,0.1987,0.1987,0,0,0,0,0,0,0,0,0.1819,0.1822,0.1867,0.187,0.1873,0.1903,0.1887,0.1914,0.1924,0.1903,0.1927,0.1928,0.1957,0.1961,0.1962,0.197,0.1972,0.1987,0.1988,0.1988,0.1988,0,0,0,0,0,0,0,0.1817,0.1821,0.1857,0.1868,0.1872,0.188,0.1885,0.1892,0.1922,0.1905,0.1908,0.1917,0.1959,0.1961,0.1963,0.1973,0.1987,0.1988,0.1989,0.1989,0.2086,0.2088,0,0,0,0,0,0,0.1816,0.1819,0.1856,0.1859,0.1851,0.188,0.1885,0.189,0.1921,0.1928,0.1916,0.1918,0.1958,0.1962,0.1966,0.205,0.1988,0.1989,0.199,0.2084,0.2086,0.2088,0,0,0,0,0,0,0.1815,0.1819,0.1854,0.1842,0.1847,0.188,0.1885,0.189,0.1932,0.193,0.1936,0.1956,0.1959,0.1964,0.2009,0.2048,0.199,0.1991,0.2082,0.2085,0.2087,0.2153,0,0,0,0,0,0,0.1813,0.1818,0.1842,0.1842,0.1848,0.1883,0.1884,0.189,0.1934,0.1939,0.1966,0.197,0.196,0.2008,0.201,0.2049,0.1991,0.2079,0.2083,0.2086,0.2148,0.2158,0.2166,0,0,0,0,0,0.1811,0.1828,0.1842,0.1848,0.1872,0.1884,0.1889,0.1913,0.1935,0.1955,0.1981,0.1971,0.2032,0.201,0.2013,0.2052,0.2078,0.2082,0.2086,0.2144,0.2156,0.2165,0,0,0,0,0,0,0.1819,0.1833,0.1849,0.1871,0.1891,0.1892,0.192,0.1936,0.1971,0.1992,0.199,0.1996,0.2052,0.2044,0.2019,0.2092,0.2055,0.206,0.2099,0.2109,0.2118,0.2119,0.1992,0,0,0,0,0,0.1831,0.1852,0.1863,0.1888,0.19,0.192,0.1938,0.1955,0.1976,0.1995,0.2015,0.204,0.2063,0.2082,0.2097,0.2133,0.2129,0.2163,0.2172,0.2179,0.2183,0.2216,0.2228,0.2102,0.2102,0.2102,0,0,0.1842,0.1855,0.1869,0.1893,0.1912,0.1933,0.1934,0.1971,0.2,0.1994,0.2055,0.2074,0.2081,0.2125,0.2149,0.2128,0.2214,0.2184,0.219,0.2191,0.2222,0.2234,0.2244,0.2105,0.2105,0.2104,0,0,0.1859,0.1888,0.1907,0.1926,0.1963,0.1972,0.1992,0.2019,0.2049,0.2097,0.2107,0.2152,0.2186,0.2198,0.2207,0.2273,0.226,0.2287,0.233,0.2363,0.2373,0.2382,0.2393,0.2403,0.229,0.229,0.229,0,0.1879,0.1898,0.1917,0.1939,0.1963,0.1994,0.2019,0.2047,0.2091,0.2121,0.2131,0.2208,0.2218,0.2266,0.2293,0.2293,0.2303,0.2288,0.2373,0.2382,0.239,0.2399,0.2409,0.2293,0.2293,0.2293,0.2292,0,0.1892,0.1928,0.1944,0.1982,0.2009,0.2039,0.2072,0.2118,0.2163,0.2191,0.2268,0.2288,0.2333,0.2348,0.2341,0.2409,0.2395,0.238,0.2343,0.2406,0.2412,0.2421,0.2299,0.2297,0.2296,0.2295,0,0,0.1882,0.1942,0.1953,0.1979,0.2037,0.2052,0.2115,0.2167,0.222,0.2277,0.2339,0.2392,0.2421,0.2433,0.2441,0.2469,0.2535,0.2457,0.2457,0.2462,0.2603,0.2425,0.2417,0.2542,0.2544,0.2545,0.2584,0,0.1893,0.1935,0.1968,0.2021,0.2043,0.2098,0.2149,0.2209,0.227,0.234,0.2385,0.245,0.2447,0.2485,0.2517,0.2536,0.2562,0.2526,0.2546,0.2546,0.2376,0.2423,0.2552,0.259,0.2592,0.2593,0.2594,0,0.1887,0.1918,0.1969,0.2037,0.2055,0.2101,0.2193,0.2245,0.2346,0.24,0.2478,0.2515,0.2585,0.2567,0.2635,0.2617,0.2621,0.2623,0.2624,0.2439,0.2384,0.2515,0.261,0.2608,0.2607,0.2606,0.2605,0,0.1842,0.1915,0.1957,0.1981,0.2065,0.2115,0.2173,0.2274,0.2331,0.2451,0.2507,0.259,0.2643,0.2674,0.269,0.2678,0.2743,0.272,0.256,0.2547,0.2667,0.2656,0.276,0.276,0.276,0.276,0.276,0,0.1812,0.1851,0.1949,0.1969,0.2035,0.2105,0.2194,0.2269,0.2381,0.244,0.2542,0.2587,0.2677,0.2717,0.2719,0.2661,0.277,0.2569,0.2546,0.2693,0.2686,0.2672,0.2662,0.2761,0.2761,0.2761,0.276,0,0.1748,0.1814,0.1869,0.1975,0.2016,0.2067,0.2199,0.225,0.2377,0.2457,0.2499,0.2615,0.2657,0.271,0.2757,0.2675,0.2651,0.2602,0.2758,0.2743,0.2427,0.242,0.242,0.2414,0.2409,0.2405,0.2401,0,0.1711,0.1736,0.1862,0.19,0.1958,0.2049,0.2104,0.2239,0.2287,0.244,0.2452,0.2552,0.2602,0.2525,0.2601,0.2584,0.2551,0.252,0.2465,0.2415,0.2394,0.2394,0.2394,0.2393,0.2392,0.2391,0.2389,0,0.1643,0.1711,0.1759,0.1839,0.1907,0.1965,0.2053,0.2073,0.2207,0.234,0.234,0.2349,0.2385,0.2405,0.241,0.2395,0.253,0.2467,0.2477,0.2424,0.2383,0.2367,0.2372,0.2372,0.2375,0.2376,0.2377,0,0.1604,0.1622,0.1698,0.175,0.1832,0.1844,0.1907,0.1938,0.1999,0.2153,0.2148,0.2245,0.2357,0.2307,0.2314,0.2284,0.2242,0.2158,0.2183,0.2203,0.2112,0.2026,0.1886,0,0,0,0,0,0.1549,0.1549,0.1595,0.1633,0.1706,0.175,0.1848,0.1908,0.2031,0.1972,0.2051,0.2067,0.2062,0.2123,0.2045,0.2223,0.2261,0.2123,0.2181,0.2276,0.2296,0.2207,0,0,0,0,0,0,0.1508,0.155,0.1553,0.1523,0.1528,0.1583,0.164,0.1725,0.1697,0.1831,0.1841,0.1939,0.1973,0.2082,0.2005,0.2021,0.2011,0.2192,0.2186,0.2264,0.2282,0.2299,0.2215,0,0,0,0,0]},{"header":{"parameterUnit":"m.s-1","parameterCategory":2,"la1":30.2991,"la2":30.254,"lo1":-89.0895,"lo2":-89.0444,"dy":0.0017,"dx":0.0017,"nx":28,"ny":28,"refTime":"2025-02-24T09:00:00:Z","depth":"4","parameterNumber":3,"parameterNumberName":"V-component_of_CURRENTS"},"data":[0,0,0,0,0,0,0,0,0,0,0,0,0,0,0,0,0,0,0,0,0,0,0,0,0,0,0,0,0,0,0,0,0,0,0,0,0,0,0,0,0,0,0,0,0,0,0,0,0,0,0,0,0,0,0,0,0,0,0.0256,0.0256,0,0.024,0.024,0.024,0.0231,0.0231,0.0231,0.0231,0.0215,0.0215,0.0214,0,0,0,0,0,0,0,0,0,0,0,0,0,0.0242,0.0243,0.0256,0.0256,0.0256,0.024,0.024,0.0239,0.0231,0.0231,0.0231,0.0231,0.0215,0.0215,0.0214,0,0,0,0,0,0,0,0,0,0,0,0,0,0.0239,0.0243,0.0256,0.025,0.0249,0.024,0.024,0.0239,0.0231,0.0231,0.0231,0.0231,0.0215,0.0215,0.0214,0.0208,0,0,0.0212,0.0212,0,0,0,0,0,0,0,0,0.0239,0.0239,0.0251,0.0251,0.025,0.0238,0.0229,0.0229,0.0231,0.0238,0.0231,0.0231,0.0223,0.0222,0.0218,0.0208,0.0207,0.0212,0.0211,0.0211,0.0211,0,0,0,0,0,0,0,0.024,0.024,0.0249,0.0251,0.025,0.0236,0.0235,0.0229,0.023,0.0237,0.0236,0.0236,0.0223,0.0218,0.0217,0.0207,0.0212,0.0211,0.0211,0.021,0.0203,0.0203,0,0,0,0,0,0,0.0245,0.024,0.025,0.0249,0.0245,0.0236,0.0236,0.0241,0.023,0.0228,0.0236,0.0235,0.022,0.0218,0.0217,0.0231,0.0211,0.021,0.021,0.0202,0.0203,0.0203,0,0,0,0,0,0,0.0245,0.0246,0.025,0.0244,0.0244,0.0236,0.0243,0.0241,0.0243,0.0229,0.0227,0.024,0.022,0.0218,0.0219,0.023,0.021,0.0209,0.0202,0.0202,0.0203,0.0247,0,0,0,0,0,0,0.0244,0.0246,0.0254,0.0245,0.0244,0.0254,0.0243,0.0241,0.0242,0.0242,0.0232,0.023,0.022,0.022,0.0218,0.0229,0.0209,0.0202,0.0202,0.0203,0.0245,0.0249,0.0252,0,0,0,0,0,0.0244,0.0257,0.0255,0.0256,0.0255,0.0254,0.0253,0.0247,0.0243,0.0248,0.024,0.0231,0.0221,0.022,0.0217,0.0228,0.0202,0.0202,0.0203,0.0244,0.0248,0.0252,0,0,0,0,0,0,0.0255,0.0257,0.0254,0.0267,0.0264,0.0253,0.0257,0.0252,0.0249,0.0249,0.0235,0.0233,0.0236,0.0225,0.0224,0.0225,0.0209,0.0209,0.0241,0.0245,0.0248,0.0261,0.0208,0,0,0,0,0,0.0261,0.0272,0.0267,0.0278,0.0278,0.0268,0.0267,0.0263,0.0258,0.0257,0.025,0.0241,0.0235,0.0235,0.0226,0.023,0.0209,0.0234,0.0237,0.024,0.0248,0.0223,0.0225,0.0204,0.0204,0.0204,0,0,0.0267,0.027,0.0276,0.0281,0.0277,0.0287,0.0268,0.0271,0.0281,0.0255,0.0268,0.0252,0.0237,0.0241,0.0242,0.0235,0.0233,0.024,0.0243,0.025,0.0224,0.0226,0.0228,0.0205,0.0205,0.0205,0,0,0.0286,0.0288,0.0304,0.0306,0.0306,0.0303,0.0307,0.03,0.0299,0.0304,0.0288,0.0281,0.0274,0.0266,0.0261,0.0276,0.0249,0.0272,0.0304,0.0279,0.0281,0.0282,0.0253,0.0251,0.0276,0.0277,0.0277,0,0.0294,0.0316,0.0308,0.0322,0.0331,0.0314,0.0334,0.0329,0.0325,0.0329,0.0315,0.0302,0.0286,0.0292,0.0297,0.0285,0.0264,0.0292,0.0284,0.0285,0.0286,0.0255,0.0253,0.0279,0.0278,0.0278,0.0278,0,0.0324,0.0343,0.0352,0.037,0.0377,0.039,0.0385,0.0387,0.0381,0.0379,0.0379,0.0351,0.0346,0.0336,0.0322,0.0323,0.0304,0.0289,0.0277,0.0291,0.0257,0.0254,0.0282,0.0281,0.028,0.028,0,0,0.0342,0.037,0.0374,0.0395,0.0405,0.0416,0.0429,0.0442,0.0461,0.0439,0.0455,0.0432,0.0415,0.0407,0.0382,0.036,0.0339,0.0332,0.033,0.0307,0.0282,0.0264,0.0258,0.0323,0.0323,0.0323,0.0255,0,0.0371,0.0414,0.042,0.0464,0.0487,0.048,0.05,0.0507,0.0507,0.0515,0.0477,0.0483,0.0443,0.0442,0.0412,0.0362,0.0334,0.0359,0.0268,0.0266,0.0251,0.0254,0.0322,0.0253,0.0252,0.0251,0.0251,0,0.0403,0.043,0.0479,0.0521,0.0531,0.0555,0.0588,0.0606,0.0606,0.0605,0.0592,0.0563,0.0532,0.049,0.0407,0.0425,0.036,0.0311,0.0307,0.0275,0.0242,0.0236,0.0244,0.0245,0.0245,0.0246,0.0246,0,0.0426,0.0474,0.0518,0.0532,0.0571,0.0593,0.0618,0.0636,0.0667,0.0666,0.0678,0.0631,0.0611,0.0525,0.042,0.0415,0.0318,0.0296,0.0215,0.0212,0.0229,0.0228,0.0232,0.0232,0.0232,0.0232,0.0232,0,0.0455,0.0492,0.0535,0.0558,0.062,0.0634,0.07,0.071,0.074,0.0782,0.0732,0.0736,0.062,0.0547,0.0441,0.032,0.0331,0.0222,0.0196,0.0248,0.025,0.0226,0.0226,0.023,0.023,0.0231,0.0231,0,0.0473,0.0499,0.0557,0.061,0.0633,0.0679,0.076,0.0806,0.0824,0.0869,0.087,0.0821,0.0726,0.0596,0.0455,0.0357,0.0236,0.0187,0.0254,0.0232,0.0139,0.0142,0.0093,0.0091,0.0091,0.009,0.0089,0,0.0485,0.0516,0.0597,0.064,0.0669,0.0743,0.0797,0.0844,0.0894,0.0918,0.0935,0.0864,0.0807,0.0597,0.0458,0.0252,0.0216,0.0146,0.0139,0.0147,0.0126,0.0131,0.0135,0.0087,0.0087,0.0087,0.0087,0,0.0509,0.054,0.0587,0.0678,0.0744,0.0826,0.0901,0.0941,0.0989,0.1005,0.0984,0.0874,0.0766,0.06,0.044,0.0291,0.0188,0.0135,0.0136,0.0128,0.014,0.0121,0.0127,0.0083,0.0084,0.0084,0.0084,0,0.0528,0.0565,0.063,0.071,0.0797,0.0875,0.0919,0.0969,0.1014,0.1026,0.1018,0.0898,0.0836,0.062,0.0476,0.0326,0.0281,0.0217,0.0212,0.0214,0.0265,0.0298,0.0271,0,0,0,0,0,0.0544,0.0584,0.0658,0.0743,0.0831,0.0882,0.0973,0.101,0.1049,0.1036,0.1028,0.0922,0.0711,0.0632,0.0478,0.0448,0.0251,0.026,0.0174,0.0065,0.0069,0.0105,0,0,0,0,0,0,0.0551,0.0618,0.0653,0.0755,0.0816,0.0914,0.0972,0.1002,0.0999,0.1011,0.0909,0.0863,0.0668,0.0793,0.0467,0.0426,0.0344,0.0171,0.0167,0.0062,0.0066,0.0069,0.0108,0,0,0,0,0]}]]